• In Hungary
  • List of Countries
  • For 7 days
  • Water Temperature
  • Satellite Maps
  • Weather Map
  • News
  • Weather Widgets
  • user-avatar
    Login

    Hourly Weather Armawir

    Today, 17 August, Thursday

    Time Temperature Precipitation Wind Pressure Humidity
    00:00 +24°C° 0.8 mm 2 mps 687 mmHg 65%
    01:00 +24°C° 0.2 mm 2 mps 687 mmHg 67%
    02:00 +23°C° 0.2 mm 1 mps 687 mmHg 69%
    03:00 +22°C° 0 mm 1 mps 686 mmHg 72%
    04:00 +22°C° 0.1 mm 1 mps 686 mmHg 71%
    05:00 +22°C° 0.1 mm 1 mps 686 mmHg 70%
    06:00 +23°C° 0.1 mm 1 mps 686 mmHg 69%
    07:00 +24°C° 0.3 mm 1 mps 686 mmHg 64%
    08:00 +25°C° 0.3 mm 2 mps 686 mmHg 59%
    09:00 +27°C° 0 mm 2 mps 687 mmHg 52%
    10:00 +28°C° 0.4 mm 2 mps 687 mmHg 47%
    11:00 +30°C° 0.4 mm 3 mps 687 mmHg 42%
    12:00 +31°C° 0.4 mm 3 mps 686 mmHg 38%
    13:00 +33°C° 0.3 mm 3 mps 686 mmHg 36%
    14:00 +33°C° 0.3 mm 3 mps 686 mmHg 34%
    15:00 +34°C° 0.3 mm 3 mps 685 mmHg 32%
    16:00 +32°C° 0.5 mm 2 mps 685 mmHg 35%
    17:00 +32°C° 0.5 mm 2 mps 685 mmHg 37%
    18:00 +31°C° 0.5 mm 2 mps 685 mmHg 39%
    19:00 +29°C° 0.2 mm 2 mps 685 mmHg 45%
    20:00 +28°C° 0.2 mm 2 mps 686 mmHg 51%
    21:00 +26°C° 0.2 mm 3 mps 686 mmHg 58%
    22:00 +25°C° 0 mm 2 mps 686 mmHg 61%
    23:00 +25°C° 0 mm 2 mps 686 mmHg 64%

    Tomorrow, 18 August, Friday

    Time Temperature Precipitation Wind Pressure Humidity
    00:00 +24°C° 0 mm 2 mps 686 mmHg 67%
    01:00 +24°C° 0 mm 2 mps 686 mmHg 68%
    02:00 +23°C° 0 mm 2 mps 686 mmHg 69%
    03:00 +23°C° 0 mm 2 mps 686 mmHg 70%
    04:00 +23°C° 0 mm 2 mps 686 mmHg 69%
    05:00 +23°C° 0 mm 2 mps 686 mmHg 68%
    06:00 +23°C° 0 mm 1 mps 686 mmHg 67%
    07:00 +25°C° 0 mm 1 mps 686 mmHg 59%
    08:00 +27°C° 0 mm 1 mps 687 mmHg 51%
    09:00 +29°C° 0 mm 1 mps 687 mmHg 42%
    10:00 +31°C° 0 mm 2 mps 687 mmHg 38%
    11:00 +32°C° 0 mm 2 mps 687 mmHg 33%
    12:00 +35°C° 0 mm 2 mps 687 mmHg 29%
    13:00 +35°C° 0 mm 2 mps 687 mmHg 27%
    14:00 +36°C° 0 mm 2 mps 686 mmHg 25%
    15:00 +37°C° 0 mm 2 mps 686 mmHg 23%
    16:00 +36°C° 0 mm 2 mps 686 mmHg 25%
    17:00 +35°C° 0 mm 2 mps 686 mmHg 27%
    18:00 +34°C° 0 mm 2 mps 686 mmHg 29%
    19:00 +32°C° 0 mm 2 mps 686 mmHg 35%
    20:00 +30°C° 0 mm 2 mps 687 mmHg 41%
    21:00 +28°C° 0 mm 3 mps 687 mmHg 47%
    22:00 +27°C° 0 mm 3 mps 687 mmHg 50%
    23:00 +27°C° 0 mm 3 mps 687 mmHg 53%

    Day after tomorrow, 19 August, Saturday

    Time Temperature Precipitation Wind Pressure Humidity
    00:00 +26°C° 0 mm 2 mps 688 mmHg 55%
    01:00 +25°C° 0 mm 2 mps 687 mmHg 56%
    02:00 +25°C° 0 mm 2 mps 687 mmHg 58%
    03:00 +24°C° 0 mm 2 mps 687 mmHg 59%
    04:00 +24°C° 0 mm 2 mps 688 mmHg 58%
    05:00 +24°C° 0 mm 2 mps 688 mmHg 58%
    06:00 +24°C° 0 mm 2 mps 688 mmHg 58%
    07:00 +26°C° 0 mm 2 mps 688 mmHg 50%
    08:00 +28°C° 0 mm 2 mps 688 mmHg 43%
    09:00 +30°C° 0 mm 2 mps 689 mmHg 35%
    10:00 +31°C° 0 mm 2 mps 689 mmHg 32%
    11:00 +34°C° 0 mm 2 mps 689 mmHg 29%
    12:00 +35°C° 0 mm 3 mps 688 mmHg 26%
    13:00 +36°C° 0 mm 3 mps 688 mmHg 25%
    14:00 +36°C° 0 mm 3 mps 688 mmHg 23%
    15:00 +37°C° 0 mm 3 mps 688 mmHg 21%
    16:00 +36°C° 0 mm 3 mps 688 mmHg 23%
    17:00 +35°C° 0 mm 3 mps 688 mmHg 25%
    18:00 +35°C° 0 mm 3 mps 688 mmHg 27%
    19:00 +33°C° 0 mm 3 mps 688 mmHg 32%
    20:00 +30°C° 0 mm 3 mps 688 mmHg 37%
    21:00 +28°C° 0 mm 3 mps 689 mmHg 42%
    22:00 +27°C° 0 mm 3 mps 689 mmHg 43%
    23:00 +26°C° 0 mm 3 mps 689 mmHg 44%

    20 August, Sunday

    Time Temperature Precipitation Wind Pressure Humidity
    00:00 +25°C° 0 mm 2 mps 689 mmHg 45%
    01:00 +25°C° 0 mm 2 mps 689 mmHg 45%
    02:00 +24°C° 0 mm 2 mps 689 mmHg 46%
    03:00 +24°C° 0 mm 2 mps 689 mmHg 46%
    04:00 +24°C° 0 mm 2 mps 689 mmHg 46%
    05:00 +23°C° 0 mm 2 mps 689 mmHg 47%
    06:00 +23°C° 0 mm 2 mps 689 mmHg 47%
    07:00 +26°C° 0 mm 2 mps 689 mmHg 41%
    08:00 +28°C° 0 mm 2 mps 689 mmHg 35%
    09:00 +30°C° 0 mm 2 mps 690 mmHg 29%
    10:00 +32°C° 0 mm 2 mps 689 mmHg 27%
    11:00 +34°C° 0 mm 2 mps 689 mmHg 24%
    12:00 +36°C° 0 mm 3 mps 689 mmHg 22%
    13:00 +36°C° 0 mm 3 mps 689 mmHg 20%
    14:00 +37°C° 0 mm 3 mps 688 mmHg 19%
    15:00 +37°C° 0 mm 3 mps 688 mmHg 18%
    16:00 +37°C° 0 mm 3 mps 688 mmHg 20%
    17:00 +36°C° 0 mm 2 mps 688 mmHg 22%
    18:00 +35°C° 0 mm 2 mps 688 mmHg 24%
    19:00 +32°C° 0 mm 2 mps 688 mmHg 28%
    20:00 +30°C° 0 mm 2 mps 688 mmHg 32%
    21:00 +27°C° 0 mm 3 mps 688 mmHg 36%
    22:00 +27°C° 0 mm 2 mps 688 mmHg 38%
    23:00 +26°C° 0 mm 2 mps 688 mmHg 39%

    21 August, Monday

    Time Temperature Precipitation Wind Pressure Humidity
    00:00 +25°C° 0 mm 2 mps 688 mmHg 41%
    01:00 +25°C° 0 mm 2 mps 688 mmHg 41%
    02:00 +24°C° 0 mm 2 mps 688 mmHg 41%
    03:00 +24°C° 0 mm 2 mps 688 mmHg 42%
    04:00 +24°C° 0 mm 1 mps 688 mmHg 42%
    05:00 +23°C° 0 mm 1 mps 688 mmHg 42%
    06:00 +23°C° 0 mm 1 mps 688 mmHg 43%
    07:00 +26°C° 0 mm 1 mps 688 mmHg 37%
    08:00 +28°C° 0 mm 1 mps 688 mmHg 32%
    09:00 +31°C° 0 mm 2 mps 688 mmHg 26%
    10:00 +32°C° 0 mm 2 mps 688 mmHg 24%
    11:00 +35°C° 0 mm 2 mps 688 mmHg 21%
    12:00 +36°C° 0 mm 2 mps 688 mmHg 18%
    13:00 +37°C° 0 mm 2 mps 687 mmHg 17%
    14:00 +37°C° 0 mm 2 mps 687 mmHg 16%
    15:00 +38°C° 0 mm 2 mps 687 mmHg 15%
    16:00 +37°C° 0 mm 2 mps 686 mmHg 17%
    17:00 +36°C° 0 mm 2 mps 686 mmHg 19%
    18:00 +35°C° 0 mm 2 mps 686 mmHg 22%
    19:00 +32°C° 0 mm 2 mps 686 mmHg 25%
    20:00 +30°C° 0 mm 2 mps 686 mmHg 28%
    21:00 +28°C° 0 mm 2 mps 687 mmHg 31%
    22:00 +27°C° 0 mm 2 mps 687 mmHg 33%
    23:00 +27°C° 0 mm 2 mps 686 mmHg 36%

    22 August, Tuesday

    Time Temperature Precipitation Wind Pressure Humidity
    00:00 +26°C° 0 mm 2 mps 686 mmHg 39%
    01:00 +26°C° 0 mm 2 mps 686 mmHg 40%
    02:00 +25°C° 0 mm 2 mps 686 mmHg 40%
    03:00 +25°C° 0 mm 1 mps 686 mmHg 41%
    04:00 +25°C° 0 mm 1 mps 686 mmHg 40%
    05:00 +25°C° 0 mm 1 mps 686 mmHg 39%
    06:00 +25°C° 0 mm 1 mps 686 mmHg 38%
    07:00 +28°C° 0 mm 1 mps 686 mmHg 33%
    08:00 +30°C° 0 mm 2 mps 687 mmHg 27%
    09:00 +34°C° 0 mm 2 mps 687 mmHg 21%
    10:00 +35°C° 0 mm 3 mps 687 mmHg 20%
    11:00 +37°C° 0 mm 3 mps 687 mmHg 19%
    12:00 +38°C° 0 mm 3 mps 686 mmHg 17%
    13:00 +39°C° 0 mm 3 mps 686 mmHg 17%
    14:00 +40°C° 0 mm 3 mps 686 mmHg 16%
    15:00 +40°C° 0 mm 3 mps 685 mmHg 16%
    16:00 +39°C° 0 mm 3 mps 685 mmHg 18%
    17:00 +38°C° 0 mm 3 mps 685 mmHg 20%
    18:00 +37°C° 0 mm 3 mps 685 mmHg 22%
    19:00 +35°C° 0 mm 3 mps 685 mmHg 25%
    20:00 +33°C° 0 mm 3 mps 685 mmHg 29%
    21:00 +30°C° 0 mm 3 mps 685 mmHg 33%
    22:00 +29°C° 0 mm 3 mps 685 mmHg 35%
    23:00 +28°C° 0 mm 2 mps 685 mmHg 37%
    Show more